Torna al catalogo

KHORS NO. 4

AttivoRadioamatoreSSO
NORAD 61754·PAYLOAD·🇷🇺 Russia
Questo nome del satellite non è ancora stato confermato da fonti ufficiali.

Lanciato Nov 4, 2024 da Vostochny Cosmodrome

Loading…

Prossimi Passaggi (prossime 24 ore)

TLE

AggiornatoSource: Space-Track

Epoca: Sep 14, 2026, 22:19 UTC

1 61754U 24199V   26257.93016234  .00085949  00000-0  72694-3 0  9994
2 61754  97.2726 137.8637 0001421 317.7619  42.3533 15.69469551151676

Traccia KHORS NO. 4 in tempo reale con AllMySat

Download on the App Store